Zurück zum Katalog

FENGYUN 1C DEB

AktivSSO
NORAD 30755·DEBRIS·🇨🇳 China

Gestartet May 10, 1999 von Taiyuan Satellite Launch Center

Loading…

Nächste Überflüge (nächste 24 Stunden)

TLE

AktuellSource: Space-Track

Epoche: Sep 14, 2026, 16:02 UTC

1 30755U 99025ATR 26257.66862764  .00000877  00000-0  22598-3 0  9993
2 30755  98.2750 250.2388 0150294 148.9558 268.2318 14.45985469 24171

Verfolge FENGYUN 1C DEB in Echtzeit mit AllMySat

Download on the App Store